{"data":{"norad_id":62763,"intl_designator":"2025-015F","name":"STARLINK-33597","alt_names":[],"object_type":"PAYLOAD","status":"ACTIVE","operator":null,"country":"US","launch_date":"2025-01-21","launch_site_code":"AFWTR","launch_vehicle":null,"mission":null,"orbit_class":"UNKNOWN","rcs_meters":null,"size_class":null,"mass_kg":null,"dimensions":null,"purposes":["comms"],"wikipedia_slug":null,"has_3d_model":false,"image_url":null,"decayed_at":null,"tle_current":{"epoch":"2026-05-24T19:17:40.115328Z","epoch_age_seconds":95496,"freshness":"FRESH","line1":"1 62763U 25015F   26144.80393652  .00023000  00000+0  75026-3 0  9997","line2":"2 62763  53.1596 328.9815 0001020  78.9798 281.1318 15.31716920 76138","mean_motion":15.3171692,"eccentricity":0.000102,"inclination_deg":53.1596,"raan_deg":328.9815,"arg_perigee_deg":78.9798,"mean_anomaly_deg":281.1318,"bstar":0.00075026,"rev_number":7613,"period_min":94.012149451218,"perigee_km":469.99097774147,"apogee_km":471.38813835931,"semimajor_km":6848.8265580504,"source":"CELESTRAK","updated_at":"2026-05-25T13:38:19.744009Z"}}}